Location: Bazugues
(43.4465°N, 0.3432°E)
Time: 23:36:23
(UTC+00:00)

UNISAT 6 - Pass Details

Date: 25 May 2026
Orbit: 571 x 636 km, 97.8° (Epoch: 7 June)

Event Time Altitude Azimuth Distance (km) Brightness Sun altitude
Rises 01:49:29 0° 121° (ESE) 2,884 ? -20.5°
Reaches altitude 10° 01:52:28 10° 98° (E) 1,970 ? -20.3°
Maximum altitude 01:54:54 15° 63° (ENE) 1,653 ? -20.0°
Drops below altitude 10° 01:57:19 10° 28° (NNE) 1,955 ? -19.8°
Sets 02:00:16 0° 6° (N) 2,848 ? -19.5°
